Year,Month,Day,Hour,Minute,Value (Times are PST for temperature in C)
2005,10,26,00,00,8.10
2005,10,26,00,01,8.10
2005,10,26,00,02,8.10
2005,10,26,00,03,8.10
2005,10,26,00,04,8.20
2005,10,26,00,05,8.20
2005,10,26,00,06,8.20
2005,10,26,00,07,8.20
2005,10,26,00,08,8.20
2005,10,26,00,09,8.20
2005,10,26,00,10,8.20
2005,10,26,00,11,8.20
2005,10,26,00,12,8.20
2005,10,26,00,13,8.20
2005,10,26,00,14,8.20
2005,10,26,00,15,8.20
2005,10,26,00,16,8.20
2005,10,26,00,17,8.20
2005,10,26,00,18,8.10
2005,10,26,00,19,8.10
2005,10,26,00,20,8.10
2005,10,26,00,21,8.10
2005,10,26,00,22,8.10
2005,10,26,00,23,8.10
2005,10,26,00,24,8.10
2005,10,26,00,25,8.10
2005,10,26,00,26,8.10
2005,10,26,00,27,8.10
2005,10,26,00,28,8.10
2005,10,26,00,29,8.20
2005,10,26,00,30,8.20
2005,10,26,00,31,8.20
2005,10,26,00,32,8.20
2005,10,26,00,33,8.20
2005,10,26,00,34,8.20
2005,10,26,00,35,8.20
2005,10,26,00,36,8.10
2005,10,26,00,37,8.10
2005,10,26,00,38,8.10
2005,10,26,00,39,8.10
2005,10,26,00,40,8.10
2005,10,26,00,41,8.10
2005,10,26,00,42,8.10
2005,10,26,00,43,8.10
2005,10,26,00,44,8.10
2005,10,26,00,45,8.10
2005,10,26,00,46,8.10
2005,10,26,00,47,8.10
2005,10,26,00,48,8.10
2005,10,26,00,49,8.10
2005,10,26,00,50,8.10
2005,10,26,00,51,8.10
2005,10,26,00,52,8.10
2005,10,26,00,53,8.10
2005,10,26,00,54,8.10
2005,10,26,00,55,8.10
2005,10,26,00,56,8.10
2005,10,26,00,57,8.10
2005,10,26,00,58,8.00
2005,10,26,00,59,8.00
2005,10,26,01,00,8.00
2005,10,26,01,01,8.00
2005,10,26,01,02,7.90
2005,10,26,01,03,7.90
2005,10,26,01,04,7.90
2005,10,26,01,05,7.90
2005,10,26,01,06,7.90
2005,10,26,01,07,7.90
2005,10,26,01,08,7.90
2005,10,26,01,09,7.90
2005,10,26,01,10,7.80
2005,10,26,01,11,7.80
2005,10,26,01,12,7.80
2005,10,26,01,13,7.80
2005,10,26,01,14,7.80
2005,10,26,01,15,7.80
2005,10,26,01,16,7.70
2005,10,26,01,17,7.60
2005,10,26,01,18,7.50
2005,10,26,01,19,7.40
2005,10,26,01,20,7.30
2005,10,26,01,21,7.30
2005,10,26,01,22,7.20
2005,10,26,01,23,7.10
2005,10,26,01,24,7.10
2005,10,26,01,25,7.00
2005,10,26,01,26,7.00
2005,10,26,01,27,6.90
2005,10,26,01,28,6.90
2005,10,26,01,29,6.80
2005,10,26,01,30,6.80
2005,10,26,01,31,6.80
2005,10,26,01,32,6.80
2005,10,26,01,33,6.80
2005,10,26,01,34,6.80
2005,10,26,01,35,6.80
2005,10,26,01,36,6.80
2005,10,26,01,37,6.80
2005,10,26,01,38,6.80
2005,10,26,01,39,6.80
2005,10,26,01,40,6.80
2005,10,26,01,41,6.90
2005,10,26,01,42,6.80
2005,10,26,01,43,6.80
2005,10,26,01,44,6.80
2005,10,26,01,45,6.80
2005,10,26,01,46,6.80
2005,10,26,01,47,6.80
2005,10,26,01,48,6.80
2005,10,26,01,49,6.70
2005,10,26,01,50,6.60
2005,10,26,01,51,6.50
2005,10,26,01,52,6.40
2005,10,26,01,53,6.40
2005,10,26,01,54,6.30
2005,10,26,01,55,6.30
2005,10,26,01,56,6.30
2005,10,26,01,57,6.30
2005,10,26,01,58,6.30
2005,10,26,01,59,6.20
2005,10,26,02,00,6.20
2005,10,26,02,01,6.20
2005,10,26,02,02,6.10
2005,10,26,02,03,6.10
2005,10,26,02,04,6.10
2005,10,26,02,05,6.00
2005,10,26,02,06,6.00
2005,10,26,02,07,6.00
2005,10,26,02,08,5.90
2005,10,26,02,09,5.90
2005,10,26,02,10,5.90
2005,10,26,02,11,6.00
2005,10,26,02,12,6.00
2005,10,26,02,13,6.00
2005,10,26,02,14,6.00
2005,10,26,02,15,6.00
2005,10,26,02,16,5.90
2005,10,26,02,17,5.90
2005,10,26,02,18,5.90
2005,10,26,02,19,5.90
2005,10,26,02,20,5.90
2005,10,26,02,21,5.90
2005,10,26,02,22,5.80
2005,10,26,02,23,5.80
2005,10,26,02,24,5.80
2005,10,26,02,25,5.80
2005,10,26,02,26,5.80
2005,10,26,02,27,5.70
2005,10,26,02,28,5.70
2005,10,26,02,29,5.70
2005,10,26,02,30,5.70
2005,10,26,02,31,5.70
2005,10,26,02,32,5.60
2005,10,26,02,33,5.60
2005,10,26,02,34,5.60
2005,10,26,02,35,5.50
2005,10,26,02,36,5.50
2005,10,26,02,37,5.50
2005,10,26,02,38,5.50
2005,10,26,02,39,5.50
2005,10,26,02,40,5.50
2005,10,26,02,41,5.50
2005,10,26,02,42,5.50
2005,10,26,02,43,5.50
2005,10,26,02,44,5.50
2005,10,26,02,45,5.50
2005,10,26,02,46,5.50
2005,10,26,02,47,5.50
2005,10,26,02,48,5.40
2005,10,26,02,49,5.40
2005,10,26,02,50,5.40
2005,10,26,02,51,5.40
2005,10,26,02,52,5.40
2005,10,26,02,53,5.30
2005,10,26,02,54,5.30
2005,10,26,02,55,5.30
2005,10,26,02,56,5.30
2005,10,26,02,57,5.30
2005,10,26,02,58,5.20
2005,10,26,02,59,5.20
2005,10,26,03,00,5.30
2005,10,26,03,01,5.30
2005,10,26,03,02,5.30
2005,10,26,03,03,5.30
2005,10,26,03,04,5.30
2005,10,26,03,05,5.30
2005,10,26,03,06,5.20
2005,10,26,03,07,5.20
2005,10,26,03,08,5.10
2005,10,26,03,09,5.10
2005,10,26,03,10,5.10
2005,10,26,03,11,5.10
2005,10,26,03,12,5.10
2005,10,26,03,13,5.10
2005,10,26,03,14,5.10
2005,10,26,03,15,5.10
2005,10,26,03,16,5.10
2005,10,26,03,17,5.10
2005,10,26,03,18,5.00
2005,10,26,03,19,4.90
2005,10,26,03,20,5.10
2005,10,26,03,21,5.10
2005,10,26,03,22,5.10
2005,10,26,03,23,5.10
2005,10,26,03,24,5.10
2005,10,26,03,25,5.10
2005,10,26,03,26,5.10
2005,10,26,03,27,5.10
2005,10,26,03,28,5.10
2005,10,26,03,29,5.10
2005,10,26,03,30,5.10
2005,10,26,03,31,5.00
2005,10,26,03,32,5.00
2005,10,26,03,33,5.10
2005,10,26,03,34,5.10
2005,10,26,03,35,5.10
2005,10,26,03,36,5.10
2005,10,26,03,37,5.10
2005,10,26,03,38,5.00
2005,10,26,03,39,4.90
2005,10,26,03,40,4.90
2005,10,26,03,41,4.90
2005,10,26,03,42,4.80
2005,10,26,03,43,4.80
2005,10,26,03,44,4.70
2005,10,26,03,45,4.70
2005,10,26,03,46,4.70
2005,10,26,03,47,4.70
2005,10,26,03,48,4.70
2005,10,26,03,49,4.70
2005,10,26,03,50,4.70
2005,10,26,03,51,4.70
2005,10,26,03,52,4.70
2005,10,26,03,53,4.70
2005,10,26,03,54,4.70
2005,10,26,03,55,4.70
2005,10,26,03,56,4.70
2005,10,26,03,57,4.60
2005,10,26,03,58,4.60
2005,10,26,03,59,4.60
2005,10,26,04,00,4.60
2005,10,26,04,01,4.60
2005,10,26,04,02,4.50
2005,10,26,04,03,4.50
2005,10,26,04,04,4.40
2005,10,26,04,05,4.40
2005,10,26,04,06,4.30
2005,10,26,04,07,4.30
2005,10,26,04,08,4.30
2005,10,26,04,09,4.30
2005,10,26,04,10,4.30
2005,10,26,04,11,4.30
2005,10,26,04,12,4.30
2005,10,26,04,13,4.20
2005,10,26,04,14,4.20
2005,10,26,04,15,4.20
2005,10,26,04,16,4.20
2005,10,26,04,17,4.20
2005,10,26,04,18,4.20
2005,10,26,04,19,4.20
2005,10,26,04,20,4.20
2005,10,26,04,21,4.20
2005,10,26,04,22,4.20
2005,10,26,04,23,4.10
2005,10,26,04,24,4.10
2005,10,26,04,25,4.10
2005,10,26,04,26,4.10
2005,10,26,04,27,4.10
2005,10,26,04,28,4.10
2005,10,26,04,29,4.10
2005,10,26,04,30,4.10
2005,10,26,04,31,4.10
2005,10,26,04,32,4.10
2005,10,26,04,33,4.00
2005,10,26,04,34,4.00
2005,10,26,04,35,4.00
2005,10,26,04,36,4.00
2005,10,26,04,37,4.00
2005,10,26,04,38,4.00
2005,10,26,04,39,3.90
2005,10,26,04,40,3.90
2005,10,26,04,41,3.90
2005,10,26,04,42,3.90
2005,10,26,04,43,3.90
2005,10,26,04,44,3.80
2005,10,26,04,45,3.80
2005,10,26,04,46,3.80
2005,10,26,04,47,3.80
2005,10,26,04,48,3.80
2005,10,26,04,49,3.80
2005,10,26,04,50,3.80
2005,10,26,04,51,3.80
2005,10,26,04,52,3.80
2005,10,26,04,53,3.80
2005,10,26,04,54,3.70
2005,10,26,04,55,3.70
2005,10,26,04,56,3.70
2005,10,26,04,57,3.60
2005,10,26,04,58,3.60
2005,10,26,04,59,3.60
2005,10,26,05,00,3.60
2005,10,26,05,01,3.60
2005,10,26,05,02,3.60
2005,10,26,05,03,3.70
2005,10,26,05,04,3.70
2005,10,26,05,05,3.70
2005,10,26,05,06,3.70
2005,10,26,05,07,3.70
2005,10,26,05,08,3.70
2005,10,26,05,09,3.70
2005,10,26,05,10,3.70
2005,10,26,05,11,3.80
2005,10,26,05,12,3.80
2005,10,26,05,13,3.80
2005,10,26,05,14,3.80
2005,10,26,05,15,3.80
2005,10,26,05,16,3.80
2005,10,26,05,17,3.80
2005,10,26,05,18,3.80
2005,10,26,05,19,3.80
2005,10,26,05,20,3.80
2005,10,26,05,21,3.80
2005,10,26,05,22,3.80
2005,10,26,05,23,3.80
2005,10,26,05,24,3.80
2005,10,26,05,25,3.80
2005,10,26,05,26,3.80
2005,10,26,05,27,3.80
2005,10,26,05,28,3.80
2005,10,26,05,29,3.80
2005,10,26,05,30,3.80
2005,10,26,05,31,3.80
2005,10,26,05,32,3.80
2005,10,26,05,33,3.80
2005,10,26,05,34,3.80
2005,10,26,05,35,3.80
2005,10,26,05,36,3.80
2005,10,26,05,37,3.80
2005,10,26,05,38,3.80
2005,10,26,05,39,3.80
2005,10,26,05,40,3.80
2005,10,26,05,41,3.80
2005,10,26,05,42,3.80
2005,10,26,05,43,3.80
2005,10,26,05,44,3.80
2005,10,26,05,45,3.70
2005,10,26,05,46,3.70
2005,10,26,05,47,3.70
2005,10,26,05,48,3.60
2005,10,26,05,49,3.60
2005,10,26,05,50,3.70
2005,10,26,05,51,3.70
2005,10,26,05,52,3.70
2005,10,26,05,53,3.80
2005,10,26,05,54,3.80
2005,10,26,05,55,3.80
2005,10,26,05,56,3.80
2005,10,26,05,57,3.80
2005,10,26,05,58,3.80
2005,10,26,05,59,3.80
2005,10,26,06,00,3.80
2005,10,26,06,01,3.90
2005,10,26,06,02,3.90
2005,10,26,06,03,3.90
2005,10,26,06,04,3.90
2005,10,26,06,05,3.90
2005,10,26,06,06,4.00
2005,10,26,06,07,4.00
2005,10,26,06,08,4.00
2005,10,26,06,09,4.00
2005,10,26,06,10,4.00
2005,10,26,06,11,4.00
2005,10,26,06,12,4.00
2005,10,26,06,13,4.10
2005,10,26,06,14,4.10
2005,10,26,06,15,4.10
2005,10,26,06,16,4.10
2005,10,26,06,17,4.20
2005,10,26,06,18,4.20
2005,10,26,06,19,4.20
2005,10,26,06,20,4.20
2005,10,26,06,21,4.20
2005,10,26,06,22,4.20
2005,10,26,06,23,4.10
2005,10,26,06,24,4.10
2005,10,26,06,25,4.10
2005,10,26,06,26,4.10
2005,10,26,06,27,4.10
2005,10,26,06,28,4.10
2005,10,26,06,29,4.10
2005,10,26,06,30,4.10
2005,10,26,06,31,4.10
2005,10,26,06,32,4.10
2005,10,26,06,33,4.10
2005,10,26,06,34,4.10
2005,10,26,06,35,4.10
2005,10,26,06,36,4.10
2005,10,26,06,37,4.10
2005,10,26,06,38,4.10
2005,10,26,06,39,4.10
2005,10,26,06,40,4.10
2005,10,26,06,41,4.00
2005,10,26,06,42,4.00
2005,10,26,06,43,4.00
2005,10,26,06,44,4.00
2005,10,26,06,45,4.00
2005,10,26,06,46,4.00
2005,10,26,06,47,4.00
2005,10,26,06,48,4.00
2005,10,26,06,49,4.00
2005,10,26,06,50,4.00
2005,10,26,06,51,4.00
2005,10,26,06,52,4.00
2005,10,26,06,53,4.00
2005,10,26,06,54,4.10
2005,10,26,06,55,4.10
2005,10,26,06,56,4.10
2005,10,26,06,57,4.10
2005,10,26,06,58,4.10
2005,10,26,06,59,4.10
2005,10,26,07,00,4.10
2005,10,26,07,01,4.10
2005,10,26,07,02,4.10
2005,10,26,07,03,4.10
2005,10,26,07,04,4.00
2005,10,26,07,05,4.00
2005,10,26,07,06,4.00
2005,10,26,07,07,4.00
2005,10,26,07,08,4.00
2005,10,26,07,09,3.90
2005,10,26,07,10,3.90
2005,10,26,07,11,3.90
2005,10,26,07,12,3.90
2005,10,26,07,13,3.90
2005,10,26,07,14,3.90
2005,10,26,07,15,3.90
2005,10,26,07,16,3.90
2005,10,26,07,17,3.90
2005,10,26,07,18,3.90
2005,10,26,07,19,3.90
2005,10,26,07,20,3.90
2005,10,26,07,21,3.90
2005,10,26,07,22,4.00
2005,10,26,07,23,4.00
2005,10,26,07,24,4.00
2005,10,26,07,25,4.00
2005,10,26,07,26,4.10
2005,10,26,07,27,4.10
2005,10,26,07,28,4.10
2005,10,26,07,29,4.10
2005,10,26,07,30,4.10
2005,10,26,07,31,4.10
2005,10,26,07,32,4.10
2005,10,26,07,33,4.10
2005,10,26,07,34,4.10
2005,10,26,07,35,4.10
2005,10,26,07,36,4.10
2005,10,26,07,37,4.10
2005,10,26,07,38,4.10
2005,10,26,07,39,4.10
2005,10,26,07,40,4.10
2005,10,26,07,41,4.20
2005,10,26,07,42,4.20
2005,10,26,07,43,4.20
2005,10,26,07,44,4.20
2005,10,26,07,45,4.20
2005,10,26,07,46,4.20
2005,10,26,07,47,4.20
2005,10,26,07,48,4.20
2005,10,26,07,49,4.20
2005,10,26,07,50,4.20
2005,10,26,07,51,4.20
2005,10,26,07,52,4.20
2005,10,26,07,53,4.20
2005,10,26,07,54,4.20
2005,10,26,07,55,4.20
2005,10,26,07,56,4.20
2005,10,26,07,57,4.20
2005,10,26,07,58,4.20
2005,10,26,07,59,4.20
2005,10,26,08,00,4.20
2005,10,26,08,01,4.20
2005,10,26,08,02,4.20
2005,10,26,08,03,4.20
2005,10,26,08,04,4.20
2005,10,26,08,05,4.20
2005,10,26,08,06,4.20
2005,10,26,08,07,4.20
2005,10,26,08,08,4.20
2005,10,26,08,09,4.20
2005,10,26,08,10,4.20
2005,10,26,08,11,4.30
2005,10,26,08,12,4.30
2005,10,26,08,13,4.30
2005,10,26,08,14,4.30
2005,10,26,08,15,4.30
2005,10,26,08,16,4.30
2005,10,26,08,17,4.30
2005,10,26,08,18,4.30
2005,10,26,08,19,4.30
2005,10,26,08,20,4.30
2005,10,26,08,21,4.30
2005,10,26,08,22,4.30
2005,10,26,08,23,4.30
2005,10,26,08,24,4.30
2005,10,26,08,25,4.40
2005,10,26,08,26,4.40
2005,10,26,08,27,4.50
2005,10,26,08,28,4.50
2005,10,26,08,29,4.50
2005,10,26,08,30,4.60
2005,10,26,08,31,4.60
2005,10,26,08,32,4.60
2005,10,26,08,33,4.60
2005,10,26,08,34,4.60
2005,10,26,08,35,4.60
2005,10,26,08,36,4.60
2005,10,26,08,37,4.70
2005,10,26,08,38,4.70
2005,10,26,08,39,4.70
2005,10,26,08,40,4.80
2005,10,26,08,41,4.80
2005,10,26,08,42,4.80
2005,10,26,08,43,4.90
2005,10,26,08,44,4.90
2005,10,26,08,45,4.90
2005,10,26,08,46,5.00
2005,10,26,08,47,5.10
2005,10,26,08,48,5.10
2005,10,26,08,49,5.10
2005,10,26,08,50,5.10
2005,10,26,08,51,5.10
2005,10,26,08,52,5.20
2005,10,26,08,53,5.20
2005,10,26,08,54,5.30
2005,10,26,08,55,5.30
2005,10,26,08,56,5.30
2005,10,26,08,57,5.30
2005,10,26,08,58,5.30
2005,10,26,08,59,5.30
2005,10,26,09,00,5.30
2005,10,26,09,01,5.40
2005,10,26,09,02,5.40
2005,10,26,09,03,5.40
2005,10,26,09,04,5.40
2005,10,26,09,05,5.40
2005,10,26,09,06,5.50
2005,10,26,09,07,5.50
2005,10,26,09,08,5.50
2005,10,26,09,09,5.60
2005,10,26,09,10,5.60
2005,10,26,09,11,5.70
2005,10,26,09,12,5.70
2005,10,26,09,13,5.70
2005,10,26,09,14,5.80
2005,10,26,09,15,5.90
2005,10,26,09,16,6.00
2005,10,26,09,17,6.00
2005,10,26,09,18,6.10
2005,10,26,09,19,6.10
2005,10,26,09,20,6.20
2005,10,26,09,21,6.20
2005,10,26,09,22,6.30
2005,10,26,09,23,6.30
2005,10,26,09,24,6.40
2005,10,26,09,25,6.40
2005,10,26,09,26,6.50
2005,10,26,09,27,6.60
2005,10,26,09,28,6.60
2005,10,26,09,29,6.60
2005,10,26,09,30,6.60
2005,10,26,09,31,6.60
2005,10,26,09,32,6.60
2005,10,26,09,33,6.70
2005,10,26,09,34,6.70
2005,10,26,09,35,6.80
2005,10,26,09,36,6.80
2005,10,26,09,37,6.80
2005,10,26,09,38,6.80
2005,10,26,09,39,6.90
2005,10,26,09,40,6.90
2005,10,26,09,41,6.90
2005,10,26,09,42,7.00
2005,10,26,09,43,7.00
2005,10,26,09,44,7.10
2005,10,26,09,45,7.10
2005,10,26,09,46,7.20
2005,10,26,09,47,7.20
2005,10,26,09,48,7.30
2005,10,26,09,49,7.30
2005,10,26,09,50,7.30
2005,10,26,09,51,7.30
2005,10,26,09,52,7.30
2005,10,26,09,53,7.30
2005,10,26,09,54,7.30
2005,10,26,09,55,7.30
2005,10,26,09,56,7.40
2005,10,26,09,57,7.40
2005,10,26,09,58,7.40
2005,10,26,09,59,7.40
2005,10,26,10,00,7.50
2005,10,26,10,01,7.50
2005,10,26,10,02,7.50
2005,10,26,10,03,7.60
2005,10,26,10,04,7.60
2005,10,26,10,05,7.60
2005,10,26,10,06,7.60
2005,10,26,10,07,7.60
2005,10,26,10,08,7.70
2005,10,26,10,09,7.70
2005,10,26,10,10,7.70
2005,10,26,10,11,7.70
2005,10,26,10,12,7.70
2005,10,26,10,13,7.80
2005,10,26,10,14,7.80
2005,10,26,10,15,7.80
2005,10,26,10,16,7.80
2005,10,26,10,17,7.80
2005,10,26,10,18,7.80
2005,10,26,10,19,7.80
2005,10,26,10,20,7.80
2005,10,26,10,21,7.80
2005,10,26,10,22,7.90
2005,10,26,10,23,7.90
2005,10,26,10,24,7.90
2005,10,26,10,25,8.00
2005,10,26,10,26,8.00
2005,10,26,10,27,8.10
2005,10,26,10,28,8.10
2005,10,26,10,29,8.20
2005,10,26,10,30,8.20
2005,10,26,10,31,8.20
2005,10,26,10,32,8.30
2005,10,26,10,33,8.30
2005,10,26,10,34,8.30
2005,10,26,10,35,8.40
2005,10,26,10,36,8.40
2005,10,26,10,37,8.50
2005,10,26,10,38,8.50
2005,10,26,10,39,8.50
2005,10,26,10,40,8.60
2005,10,26,10,41,8.60
2005,10,26,10,42,8.70
2005,10,26,10,43,8.70
2005,10,26,10,44,8.70
2005,10,26,10,45,8.70
2005,10,26,10,46,8.70
2005,10,26,10,47,8.70
2005,10,26,10,48,8.70
2005,10,26,10,49,8.80
2005,10,26,10,50,8.80
2005,10,26,10,51,8.80
2005,10,26,10,52,8.80
2005,10,26,10,53,8.90
2005,10,26,10,54,8.90
2005,10,26,10,55,8.90
2005,10,26,10,56,8.90
2005,10,26,10,57,8.90
2005,10,26,10,58,9.00
2005,10,26,10,59,9.00
2005,10,26,11,00,9.00
2005,10,26,11,01,9.00
2005,10,26,11,02,9.10
2005,10,26,11,03,9.10
2005,10,26,11,04,9.10
2005,10,26,11,05,9.10
2005,10,26,11,06,9.20
2005,10,26,11,07,9.20
2005,10,26,11,08,9.20
2005,10,26,11,09,9.20
2005,10,26,11,10,9.20
2005,10,26,11,11,9.30
2005,10,26,11,12,9.30
2005,10,26,11,13,9.40
2005,10,26,11,14,9.40
2005,10,26,11,15,9.40
2005,10,26,11,16,9.50
2005,10,26,11,17,9.50
2005,10,26,11,18,9.60
2005,10,26,11,19,9.60
2005,10,26,11,20,9.60
2005,10,26,11,21,9.60
2005,10,26,11,22,9.70
2005,10,26,11,23,9.70
2005,10,26,11,24,9.70
2005,10,26,11,25,9.70
2005,10,26,11,26,9.80
2005,10,26,11,27,9.80
2005,10,26,11,28,9.90
2005,10,26,11,29,9.90
2005,10,26,11,30,10.10
2005,10,26,11,31,10.10
2005,10,26,11,32,10.10
2005,10,26,11,33,10.20
2005,10,26,11,34,10.30
2005,10,26,11,35,10.40
2005,10,26,11,36,10.40
2005,10,26,11,37,10.50
2005,10,26,11,38,10.60
2005,10,26,11,39,10.60
2005,10,26,11,40,10.60
2005,10,26,11,41,10.60
2005,10,26,11,42,10.60
2005,10,26,11,43,10.70
2005,10,26,11,44,10.70
2005,10,26,11,45,10.70
2005,10,26,11,46,10.80
2005,10,26,11,47,10.80
2005,10,26,11,48,10.90
2005,10,26,11,49,10.90
2005,10,26,11,50,10.90
2005,10,26,11,51,11.00
2005,10,26,11,52,11.10
2005,10,26,11,53,11.20
2005,10,26,11,54,11.30
2005,10,26,11,55,11.40
2005,10,26,11,56,11.40
2005,10,26,11,57,11.40
2005,10,26,11,58,11.40
2005,10,26,11,59,11.40
2005,10,26,12,00,11.40
2005,10,26,12,01,11.50
2005,10,26,12,02,11.40
2005,10,26,12,03,11.40
2005,10,26,12,04,11.30
2005,10,26,12,05,11.30
2005,10,26,12,06,11.30
2005,10,26,12,07,11.30
2005,10,26,12,08,11.30
2005,10,26,12,09,11.30
2005,10,26,12,10,11.30
2005,10,26,12,11,11.30
2005,10,26,12,12,11.30
2005,10,26,12,13,11.30
2005,10,26,12,14,11.30
2005,10,26,12,15,11.30
2005,10,26,12,16,11.20
2005,10,26,12,17,11.20
2005,10,26,12,18,11.20
2005,10,26,12,19,11.30
2005,10,26,12,20,11.40
2005,10,26,12,21,11.40
2005,10,26,12,22,11.50
2005,10,26,12,23,11.60
2005,10,26,12,24,11.60
2005,10,26,12,25,11.60
2005,10,26,12,26,11.60
2005,10,26,12,27,11.70
2005,10,26,12,28,11.60
2005,10,26,12,29,11.70
2005,10,26,12,30,11.70
2005,10,26,12,31,11.70
2005,10,26,12,32,11.80
2005,10,26,12,33,11.80
2005,10,26,12,34,11.70
2005,10,26,12,35,11.60
2005,10,26,12,36,11.60
2005,10,26,12,37,11.60
2005,10,26,12,38,11.70
2005,10,26,12,39,11.80
2005,10,26,12,40,11.80
2005,10,26,12,41,11.80
2005,10,26,12,42,11.70
2005,10,26,12,43,11.60
2005,10,26,12,44,11.60
2005,10,26,12,45,11.60
2005,10,26,12,46,11.60
2005,10,26,12,47,11.40
2005,10,26,12,48,11.40
2005,10,26,12,49,11.40
2005,10,26,12,50,11.40
2005,10,26,12,51,11.40
2005,10,26,12,52,11.40
2005,10,26,12,53,11.40
2005,10,26,12,54,11.40
2005,10,26,12,55,11.40
2005,10,26,12,56,11.40
2005,10,26,12,57,11.50
2005,10,26,12,58,11.60
2005,10,26,12,59,11.60
2005,10,26,13,00,11.70
2005,10,26,13,01,11.80
2005,10,26,13,02,11.80
2005,10,26,13,03,11.90
2005,10,26,13,04,11.90
2005,10,26,13,05,12.00
2005,10,26,13,06,12.00
2005,10,26,13,07,12.00
2005,10,26,13,08,11.90
2005,10,26,13,09,11.90
2005,10,26,13,10,11.80
2005,10,26,13,11,11.80
2005,10,26,13,12,11.80
2005,10,26,13,13,11.80
2005,10,26,13,14,11.80
2005,10,26,13,15,11.80
2005,10,26,13,16,11.80
2005,10,26,13,17,11.80
2005,10,26,13,18,11.80
2005,10,26,13,19,11.80
2005,10,26,13,20,11.80
2005,10,26,13,21,11.80
2005,10,26,13,22,11.80
2005,10,26,13,23,11.80
2005,10,26,13,24,11.80
2005,10,26,13,25,11.80
2005,10,26,13,26,11.80
2005,10,26,13,27,11.80
2005,10,26,13,28,11.90
2005,10,26,13,29,12.00
2005,10,26,13,30,12.10
2005,10,26,13,31,12.20
2005,10,26,13,32,12.20
2005,10,26,13,33,12.30
2005,10,26,13,34,12.30
2005,10,26,13,35,12.30
2005,10,26,13,36,12.20
2005,10,26,13,37,12.10
2005,10,26,13,38,12.00
2005,10,26,13,39,11.90
2005,10,26,13,40,11.90
2005,10,26,13,41,11.80
2005,10,26,13,42,11.80
2005,10,26,13,43,11.80
2005,10,26,13,44,11.80
2005,10,26,13,45,11.90
2005,10,26,13,46,11.90
2005,10,26,13,47,11.90
2005,10,26,13,48,11.90
2005,10,26,13,49,11.90
2005,10,26,13,50,11.80
2005,10,26,13,51,11.80
2005,10,26,13,52,11.90
2005,10,26,13,53,11.90
2005,10,26,13,54,12.00
2005,10,26,13,55,12.00
2005,10,26,13,56,12.00
2005,10,26,13,57,12.10
2005,10,26,13,58,12.10
2005,10,26,13,59,12.00
2005,10,26,14,00,12.00
2005,10,26,14,01,11.90
2005,10,26,14,02,11.90
2005,10,26,14,03,11.90
2005,10,26,14,04,11.90
2005,10,26,14,05,11.90
2005,10,26,14,06,12.00
2005,10,26,14,07,12.00
2005,10,26,14,08,12.00
2005,10,26,14,09,12.00
2005,10,26,14,10,12.00
2005,10,26,14,11,12.00
2005,10,26,14,12,12.00
2005,10,26,14,13,11.90
2005,10,26,14,14,12.00
2005,10,26,14,15,11.90
2005,10,26,14,16,11.90
2005,10,26,14,17,11.90
2005,10,26,14,18,11.90
2005,10,26,14,19,11.90
2005,10,26,14,20,11.80
2005,10,26,14,21,11.80
2005,10,26,14,22,11.80
2005,10,26,14,23,11.80
2005,10,26,14,24,11.90
2005,10,26,14,25,11.90
2005,10,26,14,26,12.00
2005,10,26,14,27,12.00
2005,10,26,14,28,12.10
2005,10,26,14,29,12.10
2005,10,26,14,30,12.20
2005,10,26,14,31,12.30
2005,10,26,14,32,12.30
2005,10,26,14,33,12.40
2005,10,26,14,34,12.40
2005,10,26,14,35,12.50
2005,10,26,14,36,12.60
2005,10,26,14,37,12.60
2005,10,26,14,38,12.70
2005,10,26,14,39,12.70
2005,10,26,14,40,12.70
2005,10,26,14,41,12.80
2005,10,26,14,42,12.80
2005,10,26,14,43,12.90
2005,10,26,14,44,12.90
2005,10,26,14,45,12.90
2005,10,26,14,46,12.80
2005,10,26,14,47,12.80
2005,10,26,14,48,12.70
2005,10,26,14,49,12.70
2005,10,26,14,50,12.60
2005,10,26,14,51,12.60
2005,10,26,14,52,12.70
2005,10,26,14,53,12.70
2005,10,26,14,54,12.70
2005,10,26,14,55,12.70
2005,10,26,14,56,12.60
2005,10,26,14,57,12.50
2005,10,26,14,58,12.50
2005,10,26,14,59,12.50
2005,10,26,15,00,12.40
2005,10,26,15,01,12.40
2005,10,26,15,02,12.40
2005,10,26,15,03,12.40
2005,10,26,15,04,12.40
2005,10,26,15,05,12.40
2005,10,26,15,06,12.40
2005,10,26,15,07,12.40
2005,10,26,15,08,12.40
2005,10,26,15,09,12.40
2005,10,26,15,10,12.40
2005,10,26,15,11,12.40
2005,10,26,15,12,12.40
2005,10,26,15,13,12.30
2005,10,26,15,14,12.30
2005,10,26,15,15,12.30
2005,10,26,15,16,12.30
2005,10,26,15,17,12.30
2005,10,26,15,18,12.30
2005,10,26,15,19,12.30
2005,10,26,15,20,12.30
2005,10,26,15,21,12.30
2005,10,26,15,22,12.40
2005,10,26,15,23,12.50
2005,10,26,15,24,12.50
2005,10,26,15,25,12.50
2005,10,26,15,26,12.50
2005,10,26,15,27,12.50
2005,10,26,15,28,12.50
2005,10,26,15,29,12.50
2005,10,26,15,30,12.40
2005,10,26,15,31,12.40
2005,10,26,15,32,12.40
2005,10,26,15,33,12.40
2005,10,26,15,34,12.30
2005,10,26,15,35,12.30
2005,10,26,15,36,12.30
2005,10,26,15,37,12.30
2005,10,26,15,38,12.40
2005,10,26,15,39,12.40
2005,10,26,15,40,12.40
2005,10,26,15,41,12.50
2005,10,26,15,42,12.50
2005,10,26,15,43,12.60
2005,10,26,15,44,12.60
2005,10,26,15,45,12.70
2005,10,26,15,46,12.70
2005,10,26,15,47,12.80
2005,10,26,15,48,12.80
2005,10,26,15,49,12.90
2005,10,26,15,50,12.90
2005,10,26,15,51,12.80
2005,10,26,15,52,12.80
2005,10,26,15,53,12.80
2005,10,26,15,54,12.80
2005,10,26,15,55,12.70
2005,10,26,15,56,12.80
2005,10,26,15,57,12.80
2005,10,26,15,58,12.80
2005,10,26,15,59,12.80
2005,10,26,16,00,12.80
2005,10,26,16,01,12.80
2005,10,26,16,02,12.80
2005,10,26,16,03,12.80
2005,10,26,16,04,12.80
2005,10,26,16,05,12.80
2005,10,26,16,06,12.80
2005,10,26,16,07,12.80
2005,10,26,16,08,12.80
2005,10,26,16,09,12.80
2005,10,26,16,10,12.80
2005,10,26,16,11,12.80
2005,10,26,16,12,12.80
2005,10,26,16,13,12.80
2005,10,26,16,14,12.90
2005,10,26,16,15,12.90
2005,10,26,16,16,12.90
2005,10,26,16,17,12.90
2005,10,26,16,18,12.80
2005,10,26,16,19,12.80
2005,10,26,16,20,12.80
2005,10,26,16,21,12.80
2005,10,26,16,22,12.90
2005,10,26,16,23,12.90
2005,10,26,16,24,12.90
2005,10,26,16,25,12.90
2005,10,26,16,26,12.80
2005,10,26,16,27,12.80
2005,10,26,16,28,12.80
2005,10,26,16,29,12.80
2005,10,26,16,30,12.80
2005,10,26,16,31,12.80
2005,10,26,16,32,12.80
2005,10,26,16,33,12.70
2005,10,26,16,34,12.60
2005,10,26,16,35,12.60
2005,10,26,16,36,12.50
2005,10,26,16,37,12.50
2005,10,26,16,38,12.50
2005,10,26,16,39,12.40
2005,10,26,16,40,12.30
2005,10,26,16,41,12.30
2005,10,26,16,42,12.20
2005,10,26,16,43,12.10
2005,10,26,16,44,12.10
2005,10,26,16,45,12.10
2005,10,26,16,46,12.00
2005,10,26,16,47,12.00
2005,10,26,16,48,11.90
2005,10,26,16,49,11.90
2005,10,26,16,50,11.80
2005,10,26,16,51,11.80
2005,10,26,16,52,11.80
2005,10,26,16,53,11.70
2005,10,26,16,54,11.70
2005,10,26,16,55,11.70
2005,10,26,16,56,11.70
2005,10,26,16,57,11.70
2005,10,26,16,58,11.70
2005,10,26,16,59,11.70
2005,10,26,17,00,11.70
2005,10,26,17,01,11.70
2005,10,26,17,02,11.70
2005,10,26,17,03,11.60
2005,10,26,17,04,11.60
2005,10,26,17,05,11.60
2005,10,26,17,06,11.60
2005,10,26,17,07,11.50
2005,10,26,17,08,11.40
2005,10,26,17,09,11.40
2005,10,26,17,10,11.40
2005,10,26,17,11,11.40
2005,10,26,17,12,11.40
2005,10,26,17,13,11.50
2005,10,26,17,14,11.50
2005,10,26,17,15,11.40
2005,10,26,17,16,11.40
2005,10,26,17,17,11.40
2005,10,26,17,18,11.40
2005,10,26,17,19,11.40
2005,10,26,17,20,11.40
2005,10,26,17,21,11.40
2005,10,26,17,22,11.30
2005,10,26,17,23,11.30
2005,10,26,17,24,11.30
2005,10,26,17,25,11.30
2005,10,26,17,26,11.20
2005,10,26,17,27,11.20
2005,10,26,17,28,11.20
2005,10,26,17,29,11.20
2005,10,26,17,30,11.10
2005,10,26,17,31,11.10
2005,10,26,17,32,11.10
2005,10,26,17,33,11.10
2005,10,26,17,34,11.00
2005,10,26,17,35,10.90
2005,10,26,17,36,10.90
2005,10,26,17,37,10.90
2005,10,26,17,38,10.90
2005,10,26,17,39,10.80
2005,10,26,17,40,10.80
2005,10,26,17,41,10.70
2005,10,26,17,42,10.70
2005,10,26,17,43,10.60
2005,10,26,17,44,10.60
2005,10,26,17,45,10.60
2005,10,26,17,46,10.50
2005,10,26,17,47,10.40
2005,10,26,17,48,10.40
2005,10,26,17,49,10.30